This is the latest recevied weather packets stored in our database for station/object IW2NIA-3. If no packets are shown the sender has not sent any weather packets the latest 10 day(s).
| Time | Temp. | Humidity | Pressure | Rain* | Wind** | Luminosity | Snow |
|---|---|---|---|---|---|---|---|
| 1788534223 | 32.78° C | 40% | 1017 hPa | 0 mm | - | - | - |
| 1788533311 | 32.22° C | 41% | 1017.2 hPa | 0 mm | - | - | - |
| 1788532413 | 31.67° C | 46% | 1017.1 hPa | 0 mm | - | - | - |
| 1788531526 | 32.22° C | 44% | 1017.3 hPa | 0 mm | - | - | - |
| 1788530644 | 32.22° C | 45% | 1017.3 hPa | 0 mm | - | - | - |
| 1788529718 | 32.22° C | 44% | 1017.5 hPa | 0 mm | - | - | - |
| 1788528813 | 31.67° C | 45% | 1017.5 hPa | 0 mm | - | - | - |
| 1788527910 | 31.67° C | 47% | 1017.5 hPa | 0 mm | - | - | - |
| 1788527023 | 31.67° C | 47% | 1017.7 hPa | 0 mm | - | - | - |
| 1788526116 | 31.11° C | 48% | 1017.9 hPa | 0 mm | - | - | - |
| 1788525209 | 31.11° C | 52% | 1018.1 hPa | 0 mm | - | - | - |
| 1788524310 | 30.56° C | 53% | 1018.3 hPa | 0 mm | - | - | - |
| 1788523410 | 30.56° C | 53% | 1018.4 hPa | 0 mm | - | - | - |
| 1788522524 | 30° C | 50% | 1018.5 hPa | 0 mm | - | - | - |
| 1788521626 | 30° C | 50% | 1018.6 hPa | 0 mm | - | - | - |
| 1788520720 | 30° C | 51% | 1018.8 hPa | 0 mm | - | - | - |
| 1788519810 | 29.44° C | 57% | 1018.9 hPa | 0 mm | - | - | - |
| 1788518910 | 29.44° C | 53% | 1018.9 hPa | 0 mm | - | - | - |
| 1788518027 | 28.89° C | 53% | 1019.1 hPa | 0 mm | - | - | - |
| 1788517109 | 28.33° C | 53% | 1019.2 hPa | 0 mm | - | - | - |
| 1788516208 | 28.33° C | 56% | 1019.4 hPa | 0 mm | - | - | - |
| 1788515320 | 27.78° C | 56% | 1019.5 hPa | 0 mm | - | - | - |
| 1788514416 | 27.78° C | 56% | 1019.6 hPa | 0 mm | - | - | - |
| 1788513526 | 27.22° C | 55% | 1019.7 hPa | 0 mm | - | - | - |
| 1788512627 | 26.67° C | 59% | 1019.6 hPa | 0 mm | - | - | - |
* Rain latest hour (hover to see other rain measurements)
** Current wind speed in m/s (hover to see current wind gust speed)